This demonstration page uses our WeatherBlox Daily Observations layout. Learn more.

Left ArrowRight Arrow

44.8408, -93.29828

Hourly Observations for December 27, 2019

Temp ( °F °C ) Dew Point ( °F °C ) Humidity (%) Winds ( mph kmh ) Pressure ( in mb ) Visibility ( mi km ) Precip ( " mm )
12:19 am 00:19 Cloudy 27 -2.8 20 -6.7 75 75 WNW 10 17 30.17 1022 10 16 0.00 0.00
12:53 am 00:53 Cloudy 27 -2.8 20 -6.7 75 75 W 10 17 30.14 1021 10 16 0.00 0.00
1:53 am 01:53 Cloudy 27 -2.8 21 -6.1 78 78 WNW 9 15 30.16 1021 10 16 0.00 0.00
2:53 am 02:53 Cloudy 27 -2.8 21 -6.1 78 78 WNW 12 19 30.17 1022 10 16 0.00 0.00
3:53 am 03:53 Cloudy 28 -2.2 22 -5.6 78 78 W 10 17 30.18 1022 10 16 0.00 0.00
4:53 am 04:53 Cloudy 28 -2.2 22 -5.6 78 78 W 12 19 30.18 1022 9 14 0.00 0.00
5:53 am 05:53 Cloudy 29 -1.7 22 -5.6 75 75 W 10 17 30.20 1023 8 13 0.00 0.00
6:30 am 06:30 Cloudy 28 -2.2 22 -5.6 78 78 WNW 10 17 30.22 1023 9 14 0.00 0.00
6:53 am 06:53 Cloudy 28 -2.2 22 -5.6 78 78 W 10 17 30.22 1023 10 16 0.00 0.00
7:40 am 07:40 Cloudy 27 -2.8 21 -6.1 78 78 NW 12 19 30.26 1025 9 14 0.00 0.00
7:53 am 07:53 Cloudy 27 -2.8 21 -6.1 78 78 W 13 20 30.24 1024 9 14 0.00 0.00
8:53 am 08:53 Cloudy 26 -3.3 21 -6.1 81 81 WNW 10 17 30.25 1025 7 11 0.00 0.00
9:53 am 09:53 Cloudy 26 -3.3 20 -6.7 78 78 W 6 9 30.27 1025 8 13 0.00 0.00
10:53 am 10:53 Cloudy 27 -2.8 21 -6.1 78 78 W 6 9 30.27 1025 8 13 0.00 0.00
11:53 am 11:53 Cloudy 27 -2.8 21 -6.1 78 78 WSW 9 15 30.27 1025 8 13 0.00 0.00
12:53 pm 12:53 Cloudy 27 -2.8 21 -6.1 78 78 WSW 9 15 30.26 1025 8 13 0.00 0.00
1:53 pm 13:53 Mostly Cloudy 27 -2.8 21 -6.1 78 78 WSW 3 6 30.24 1024 8 13 0.00 0.00
2:44 pm 14:44 Mostly Cloudy 28 -2.2 21 -6.1 75 75 SW 7 11 30.26 1025 8 13 0.00 0.00
2:53 pm 14:53 Mostly Cloudy 28 -2.2 21 -6.1 75 75 SSW 5 7 30.24 1024 7 11 0.00 0.00
3:41 pm 15:41 Partly Cloudy 28 -2.2 20 -6.7 72 72 VRB 5 7 30.26 1025 7 11 0.00 0.00
3:53 pm 15:53 Partly Cloudy 28 -2.2 20 -6.7 72 72 SSW 6 9 30.24 1024 7 11 0.00 0.00
4:53 pm 16:53 Clear 27 -2.8 20 -6.7 75 75 Calm 30.23 1024 8 13 0.00 0.00
5:53 pm 17:53 Clear 25 -3.9 19 -7.2 78 78 VRB 5 7 30.24 1024 7 11 0.00 0.00
6:53 pm 18:53 Clear 24 -4.4 19 -7.2 81 81 SSE 6 9 30.24 1024 7 11 0.00 0.00
7:53 pm 19:53 Clear 24 -4.4 19 -7.2 81 81 SE 6 9 30.23 1024 7 11 0.00 0.00
8:53 pm 20:53 Clear 24 -4.4 20 -6.7 84 84 SE 7 11 30.22 1023 7 11 0.00 0.00
9:53 pm 21:53 Clear 24 -4.4 20 -6.7 84 84 SE 7 11 30.21 1023 7 11 0.00 0.00
10:53 pm 22:53 Mostly Clear 23 -5 20 -6.7 88 88 SE 3 6 30.21 1023 7 11 0.00 0.00
11:53 pm 23:53 Mostly Clear 25 -3.9 21 -6.1 85 85 ESE 6 9 30.19 1022 7 11 0.00 0.00

Powered by AerisWeather